Location: Hermaringen
(48.5952°N, 10.2585°E)
Time: 15:22:59
(UTC+00:00)

Injun/Solrad 3 - All Passes

Search period start: 10 February 2026 00:00
Search period end: 20 February 2026 00:00
Orbit: 873 x 983 km, 66.8° (Epoch: 10 February)

Date Brightness Start Highest point End Pass type
(mag) Time Alt. Az. Time Alt. Az. Time Alt. Az.
10 Feb - 11:24:12 10° SSE 11:29:00 27° ESE 11:33:51 10° NE daylight
10 Feb - 13:09:16 10° SW 13:15:02 63° NW 13:20:58 10° NNE daylight
10 Feb - 14:58:25 10° WNW 15:02:45 20° NNW 15:07:09 10° NNE daylight
10 Feb - 16:48:52 10° NNW 16:51:44 13° N 16:54:37 10° NNE daylight
10 Feb - 18:36:02 10° NNW 18:40:39 22° NNE 18:45:20 10° ENE visible
10 Feb - 20:22:10 10° NNW 20:28:17 67° NE 20:34:31 10° SE visible
10 Feb - 22:09:17 10° NW 22:14:21 27° WSW 22:19:30 10° SSW visible
11 Feb - 11:34:25 10° S 11:39:48 40° ESE 11:45:16 10° NE daylight
11 Feb - 13:20:37 10° WSW 13:26:13 46° NW 13:31:58 10° NNE daylight
11 Feb - 15:10:27 10° WNW 15:14:17 17° NNW 15:18:11 10° NNE daylight
11 Feb - 17:00:21 10° NNW 17:03:24 14° N 17:06:29 10° NE visible
11 Feb - 18:47:00 10° NNW 18:52:06 27° NE 18:57:18 10° E visible
11 Feb - 20:33:13 10° NW 20:39:22 89° SW 20:45:40 10° SSE visible
11 Feb - 22:21:00 10° WNW 22:25:05 19° WSW 22:29:13 10° SSW visible
12 Feb - 11:44:59 10° SSW 11:50:41 59° ESE 11:56:30 10° NE daylight
12 Feb - 13:32:10 10° WSW 13:37:29 35° NW 13:42:55 10° NNE daylight
12 Feb - 15:22:31 10° NW 15:25:53 15° NNW 15:29:19 10° NNE daylight
12 Feb - 17:11:37 10° NNW 17:15:03 15° NNE 17:18:32 10° NE visible
12 Feb - 18:57:57 10° NNW 19:03:28 34° NE 19:09:06 10° ESE visible
12 Feb - 20:44:17 10° NW 20:50:22 64° WSW 20:56:34 10° SSE visible
12 Feb - 22:33:34 10° W 22:35:44 12° W 22:37:54 10° WSW visible
13 Feb - 10:12:46 10° SE 10:16:06 16° ESE 10:19:28 10° ENE daylight
13 Feb - 11:55:48 10° SSW 12:01:39 84° ESE 12:07:38 10° NE daylight
13 Feb - 13:43:54 10° W 13:48:51 27° NW 13:53:53 10° NNE daylight
13 Feb - 15:34:30 10° NW 15:37:32 14° N 15:40:37 10° NNE daylight
13 Feb - 17:22:43 10° NNW 17:26:39 17° NNE 17:30:39 10° ENE visible
13 Feb - 19:08:54 10° NNW 19:14:45 45° NE 19:20:44 10° ESE visible
13 Feb - 20:55:29 10° NW 21:01:17 45° WSW 21:07:12 10° S visible
14 Feb - 10:22:15 10° SSE 10:26:48 24° ESE 10:31:23 10° ENE daylight
14 Feb - 12:06:53 10° SW 12:12:42 70° NW 12:18:41 10° NNE daylight
14 Feb - 13:55:48 10° WNW 14:00:18 22° NNW 14:04:53 10° NNE daylight
14 Feb - 15:46:20 10° NNW 15:49:13 13° N 15:52:08 10° NNE daylight
14 Feb - 17:33:45 10° NNW 17:38:12 21° NNE 17:42:44 10° ENE visible
14 Feb - 19:19:53 10° NNW 19:25:56 61° NE 19:32:09 10° SE visible
14 Feb - 21:06:50 10° NW 21:12:08 31° WSW 21:17:32 10° S visible
15 Feb - 10:32:20 10° S 10:37:34 35° ESE 10:42:52 10° NE daylight
15 Feb - 12:18:11 10° WSW 12:23:51 51° NW 12:29:42 10° NNE daylight
15 Feb - 14:07:48 10° WNW 14:11:48 18° NNW 14:15:53 10° NNE daylight
15 Feb - 15:57:54 10° NNW 16:00:54 14° N 16:03:55 10° NE daylight
15 Feb - 17:44:43 10° NNW 17:49:40 25° NNE 17:54:43 10° E visible
15 Feb - 19:30:53 10° NW 19:37:04 83° NE 19:43:22 10° SE visible
15 Feb - 21:18:25 10° WNW 21:22:54 21° WSW 21:27:26 10° SSW visible
16 Feb - 10:42:47 10° S 10:48:25 52° ESE 10:54:09 10° NE daylight
16 Feb - 12:29:40 10° WSW 12:35:06 38° NW 12:40:40 10° NNE daylight
16 Feb - 14:19:52 10° NW 14:23:24 16° NNW 14:26:59 10° NNE daylight
16 Feb - 16:09:14 10° NNW 16:12:33 15° NNE 16:15:55 10° NE daylight
16 Feb - 17:55:40 10° NNW 18:01:05 32° NE 18:06:36 10° E visible
16 Feb - 19:41:58 10° NW 19:48:05 72° WSW 19:54:22 10° SSE visible
16 Feb - 21:30:33 10° WNW 21:33:34 14° WSW 21:36:37 10° SW visible
17 Feb - 09:11:12 10° SE 09:13:56 14° ESE 09:16:41 10° ENE daylight
17 Feb - 10:53:32 10° SSW 10:59:21 75° ESE 11:05:19 10° NE daylight
17 Feb - 12:41:21 10° W 12:46:26 29° NW 12:51:38 10° NNE daylight
17 Feb - 14:31:53 10° NW 14:35:02 14° N 14:38:14 10° NNE daylight
17 Feb - 16:20:23 10° NNW 16:24:10 17° NNE 16:28:01 10° ENE daylight
17 Feb - 18:06:38 10° NNW 18:12:23 41° NE 18:18:16 10° ESE visible
17 Feb - 19:53:07 10° NW 19:59:02 50° WSW 20:05:06 10° S visible
18 Feb - 09:20:22 10° SSE 09:24:35 21° ESE 09:28:51 10° ENE daylight
18 Feb - 11:04:32 10° SW 11:10:23 78° NW 11:16:23 10° NNE daylight
18 Feb - 12:53:11 10° W 12:57:51 23° NNW 13:02:36 10° NNE daylight
18 Feb - 14:43:47 10° NNW 14:46:42 14° N 14:49:39 10° NNE daylight
18 Feb - 16:31:26 10° NNW 16:35:45 19° NNE 16:40:07 10° ENE daylight
18 Feb - 18:17:35 10° NNW 18:23:37 55° NE 18:29:46 10° SE visible
18 Feb - 20:04:24 10° NW 20:09:55 35° WSW 20:15:32 10° S visible
19 Feb - 09:30:18 10° S 09:35:20 31° ESE 09:40:27 10° NE daylight
19 Feb - 11:15:46 10° SW 11:21:30 56° NW 11:27:24 10° NNE daylight
19 Feb - 13:05:09 10° WNW 13:09:20 19° NNW 13:13:36 10° NNE daylight
19 Feb - 14:55:25 10° NNW 14:58:23 14° N 15:01:22 10° NNE daylight
19 Feb - 16:42:25 10° NNW 16:47:15 24° NNE 16:52:09 10° E daylight
19 Feb - 18:28:35 10° NNW 18:34:45 75° NE 18:41:03 10° SE visible
19 Feb - 20:15:53 10° WNW 20:20:42 24° WSW 20:25:36 10° SSW visible
